{"data":{"norad_id":50170,"epoch":"2026-09-19T21:47:13.616736Z","epoch_age_seconds":96413,"freshness":"FRESH","line1":"1 50170U 21125Q   26262.90779649 -.00000515  00000+0 -48458-5 0  9999","line2":"2 50170  53.1598  84.5586 0001216  69.5422 290.5710 15.31699163266080","mean_motion":15.31699163,"eccentricity":0.0001216,"inclination_deg":53.1598,"raan_deg":84.5586,"arg_perigee_deg":69.5422,"mean_anomaly_deg":290.571,"bstar":-4.8458e-6,"rev_number":26608,"period_min":94.013239334779,"perigee_km":469.90966653421,"apogee_km":471.57531402625,"semimajor_km":6848.8794902802,"source":"CELESTRAK","updated_at":"2026-09-20T09:00:39.414644Z"}}